TimeEDT,TemperatureF,Dew PointF,Humidity,Sea Level PressureIn,VisibilityMPH,Wind Direction,Wind SpeedMPH,Gust SpeedMPH,PrecipitationIn,Events,Conditions,WindDirDegrees,DateUTC
12:15 AM,57.2,53.6,88,30.14,10.0,NNE,4.6,-,N/A,,Overcast,30,2012-10-10 04:15:00
12:35 AM,57.2,53.6,88,30.14,10.0,NNE,4.6,-,N/A,,Overcast,30,2012-10-10 04:35:00
12:55 AM,57.2,53.6,88,30.14,10.0,NE,8.1,-,N/A,,Overcast,40,2012-10-10 04:55:00
2:15 AM,55.4,53.6,94,30.11,10.0,NE,10.4,-,N/A,,Overcast,50,2012-10-10 06:15:00
2:35 AM,57.2,53.6,88,30.10,10.0,NE,9.2,-,N/A,,Overcast,40,2012-10-10 06:35:00
2:55 AM,57.2,53.6,88,30.09,10.0,NE,13.8,17.3,N/A,,Overcast,50,2012-10-10 06:55:00
3:15 AM,57.2,53.6,88,30.09,10.0,NE,12.7,-,N/A,,Overcast,50,2012-10-10 07:15:00
3:35 AM,57.2,53.6,88,30.09,9.0,NE,6.9,-,N/A,,Overcast,40,2012-10-10 07:35:00
3:55 AM,55.4,55.4,100,30.09,4.0,NE,9.2,-,N/A,,Overcast,50,2012-10-10 07:55:00
4:15 AM,57.2,55.4,94,30.09,9.0,NE,5.8,-,N/A,,Light Drizzle,40,2012-10-10 08:15:00
4:35 AM,57.2,55.4,94,30.09,9.0,NE,8.1,-,N/A,,Light Drizzle,40,2012-10-10 08:35:00
4:55 AM,57.2,55.4,94,30.08,10.0,NE,6.9,-,N/A,,Overcast,50,2012-10-10 08:55:00
5:15 AM,57.2,55.4,94,30.08,10.0,NE,10.4,-,N/A,,Overcast,50,2012-10-10 09:15:00
5:35 AM,57.2,55.4,94,30.08,10.0,NE,9.2,-,N/A,,Overcast,50,2012-10-10 09:35:00
5:55 AM,57.2,55.4,94,30.07,10.0,ENE,8.1,-,N/A,,Overcast,60,2012-10-10 09:55:00
6:15 AM,57.2,55.4,94,30.06,10.0,ENE,8.1,-,N/A,,Light Drizzle,60,2012-10-10 10:15:00
6:35 AM,57.2,55.4,94,30.05,10.0,NE,9.2,-,N/A,,Overcast,50,2012-10-10 10:35:00
6:55 AM,57.2,55.4,94,30.05,10.0,NE,9.2,-,N/A,,Overcast,50,2012-10-10 10:55:00
7:15 AM,57.2,55.4,94,30.05,10.0,ENE,6.9,-,N/A,,Overcast,60,2012-10-10 11:15:00
7:35 AM,57.2,55.4,94,30.04,10.0,ENE,6.9,-,N/A,,Overcast,70,2012-10-10 11:35:00
7:55 AM,57.2,55.4,94,30.05,10.0,NE,6.9,-,N/A,,Overcast,50,2012-10-10 11:55:00
8:15 AM,57.2,55.4,94,30.04,10.0,NE,5.8,-,N/A,,Overcast,50,2012-10-10 12:15:00
8:35 AM,57.2,57.2,100,30.04,10.0,NNE,3.5,-,N/A,,Overcast,30,2012-10-10 12:35:00
8:55 AM,59.0,57.2,94,30.04,10.0,Calm,Calm,-,N/A,,Light Drizzle,0,2012-10-10 12:55:00
9:35 AM,60.8,57.2,88,30.02,10.0,NE,8.1,-,N/A,,Overcast,50,2012-10-10 13:35:00
9:55 AM,60.8,57.2,88,30.01,10.0,NE,5.8,-,N/A,Rain,Light Rain,50,2012-10-10 13:55:00
10:15 AM,59.0,57.2,94,30.01,10.0,NNE,4.6,-,N/A,,Light Drizzle,30,2012-10-10 14:15:00
10:35 AM,59.0,57.2,94,30.01,1.8,NE,3.5,-,0.01,Rain,Light Rain,40,2012-10-10 14:35:00
10:55 AM,59.0,57.2,94,29.99,1.5,NE,6.9,-,0.05,Rain,Light Rain,50,2012-10-10 14:55:00
11:15 AM,59.0,57.2,94,29.98,2.5,NE,6.9,-,N/A,,Drizzle,40,2012-10-10 15:15:00
11:35 AM,59.0,57.2,94,29.97,5.0,NE,9.2,-,0.01,Rain,Light Rain,50,2012-10-10 15:35:00
11:55 AM,59.0,59.0,100,29.95,10.0,NE,9.2,-,0.01,,Light Drizzle,50,2012-10-10 15:55:00
12:15 PM,59.0,59.0,100,29.94,10.0,ENE,8.1,-,N/A,,Light Drizzle,60,2012-10-10 16:15:00
12:55 PM,60.8,59.0,94,29.92,10.0,ENE,4.6,-,N/A,,Light Drizzle,60,2012-10-10 16:55:00
1:15 PM,60.8,59.0,94,29.90,10.0,ENE,3.5,-,N/A,,Light Drizzle,70,2012-10-10 17:15:00
1:35 PM,60.8,60.8,100,29.88,10.0,East,5.8,-,N/A,,Overcast,80,2012-10-10 17:35:00
1:55 PM,60.8,60.8,100,29.87,10.0,East,8.1,-,N/A,,Overcast,100,2012-10-10 17:55:00
2:15 PM,60.8,60.8,100,29.86,10.0,SE,8.1,-,N/A,,Overcast,130,2012-10-10 18:15:00
2:35 PM,62.6,60.8,94,29.84,10.0,ESE,9.2,-,N/A,,Overcast,120,2012-10-10 18:35:00
2:55 PM,62.6,60.8,94,29.83,10.0,ESE,10.4,18.4,N/A,,Overcast,110,2012-10-10 18:55:00
3:15 PM,62.6,60.8,94,29.82,10.0,ESE,8.1,-,N/A,,Overcast,120,2012-10-10 19:15:00
3:35 PM,62.6,60.8,94,29.80,4.0,ESE,8.1,-,N/A,Rain,Light Rain,120,2012-10-10 19:35:00
3:55 PM,60.8,60.8,100,29.79,10.0,ESE,9.2,-,N/A,,Overcast,120,2012-10-10 19:55:00
4:15 PM,60.8,60.8,100,29.78,10.0,ESE,9.2,-,N/A,,Overcast,110,2012-10-10 20:15:00
4:35 PM,60.8,60.8,100,29.77,10.0,ESE,8.1,-,N/A,,Overcast,120,2012-10-10 20:35:00
4:55 PM,60.8,60.8,100,29.77,10.0,SE,11.5,18.4,N/A,,Overcast,130,2012-10-10 20:55:00
5:15 PM,60.8,60.8,100,29.76,7.0,SE,9.2,-,N/A,,Overcast,140,2012-10-10 21:15:00
5:35 PM,60.8,60.8,100,29.75,10.0,SE,9.2,18.4,N/A,,Light Drizzle,130,2012-10-10 21:35:00
5:55 PM,62.6,60.8,94,29.74,3.0,SSE,9.2,-,0.01,,Heavy Drizzle,160,2012-10-10 21:55:00
6:15 PM,62.6,60.8,94,29.75,1.0,SW,6.9,-,0.05,Rain,Rain,230,2012-10-10 22:15:00
6:35 PM,60.8,60.8,100,29.74,3.0,Calm,Calm,-,0.06,,Mostly Cloudy,0,2012-10-10 22:35:00
6:55 PM,60.8,60.8,100,29.74,10.0,South,3.5,-,0.06,,Mostly Cloudy,180,2012-10-10 22:55:00
7:15 PM,60.8,59.0,94,29.74,10.0,South,4.6,-,N/A,,Scattered Clouds,190,2012-10-10 23:15:00
7:35 PM,60.8,59.0,94,29.74,10.0,SSW,3.5,-,N/A,,Clear,200,2012-10-10 23:35:00
8:15 PM,57.2,57.2,100,29.74,0.5,Calm,Calm,-,N/A,Fog,Fog,0,2012-10-11 00:15:00
8:35 PM,60.8,59.0,94,29.74,10.0,SSW,4.6,-,N/A,,Mostly Cloudy,210,2012-10-11 00:35:00
8:55 PM,60.8,60.8,100,29.75,10.0,SW,5.8,-,N/A,,Mostly Cloudy,230,2012-10-11 00:55:00
9:15 PM,59.0,59.0,100,29.76,10.0,WSW,8.1,-,N/A,,Scattered Clouds,240,2012-10-11 01:15:00
9:35 PM,57.2,57.2,100,29.77,10.0,WSW,4.6,-,N/A,,Partly Cloudy,240,2012-10-11 01:35:00
9:55 PM,57.2,57.2,100,29.78,10.0,WSW,6.9,-,N/A,,Mostly Cloudy,240,2012-10-11 01:55:00
10:15 PM,57.2,55.4,94,29.78,10.0,SW,5.8,-,N/A,,Mostly Cloudy,220,2012-10-11 02:15:00
10:35 PM,57.2,55.4,94,29.79,10.0,SW,4.6,-,N/A,,Partly Cloudy,230,2012-10-11 02:35:00
10:55 PM,57.2,55.4,94,29.79,10.0,SSW,4.6,-,N/A,,Scattered Clouds,210,2012-10-11 02:55:00
11:15 PM,57.2,55.4,94,29.80,10.0,WSW,5.8,-,N/A,,Mostly Cloudy,240,2012-10-11 03:15:00
11:35 PM,55.4,55.4,100,29.80,10.0,SW,5.8,-,N/A,,Partly Cloudy,230,2012-10-11 03:35:00
11:55 PM,55.4,53.6,94,29.80,10.0,West,9.2,-,N/A,,Clear,260,2012-10-11 03:55:00